Wind_Speed
15 15 16 17 17 17 18 19 19 19 20 20 20 21 21 21 21 21 21 21 21 21 21 21 22 22 22 22 22 22 22 22 22 22 22 23 23 24
17 17 17 17 18 17 18 19 19 20 20 21 22 22 22 22 22 21 21 21 22 22 23 23 23 23 23 23 23 23 23 23 23 24 25 25 25 25
19 19 19 19 20 20 20 21 21 21 21 22 23 23 23 23 23 24 24 23 23 24 24 24 24 24 25 25 26 25 25 25 25 25 25 26 26 26
22 22 22 22 22 22 22 22 22 23 23 23 24 25 25 25 25 26 26 26 26 26 26 26 26 26 26 26 26 27 27 27 27 27 27 27 28 28
23 24 24 24 23 23 23 23 24 25 25 25 25 26 27 27 26 26 26 26 25 26 25 26 27 27 27 28 27 28 28 28 29 29 29 29 30 30
25 25 26 25 25 24 25 26 26 26 26 26 27 27 27 27 28 28 27 27 27 27 27 27 27 28 28 28 28 28 29 29 30 30 30 31 31 31
27 27 27 27 26 27 27 27 27 28 28 28 29 28 28 29 29 28 28 28 27 27 27 28 28 28 29 29 29 30 30 30 30 31 31 32 31 31
28 28 29 29 28 28 28 28 29 29 30 30 30 30 30 30 30 30 29 29 29 29 29 30 30 30 30 30 30 31 31 31 31 32 32 32 32 32
30 30 30 30 30 30 30 30 30 30 31 31 31 31 30 31 31 30 30 30 30 31 31 31 31 31 30 30 31 32 32 32 32 32 32 32 32 32
31 30 30 29 30 30 30 30 30 31 31 31 31 31 31 31 31 31 31 31 32 32 32 31 31 32 32 32 32 32 33 33 33 34 33 33 33 33
31 30 30 30 30 30 30 30 30 30 30 31 31 31 31 32 32 33 32 32 32 32 33 32 32 33 33 33 33 33 33 34 34 34 34 34 33 33
29 30 30 30 30 30 31 31 31 31 31 31 32 32 32 33 33 33 33 33 34 33 33 33 33 34 34 34 34 34 34 33 34 34 34 34 33 33
29 30 31 31 31 32 32 32 32 32 32 32 33 33 34 34 34 34 34 34 35 34 34 35 34 34 35 34 35 35 35 34 33 33 33 33 34 33
30 31 31 32 32 32 32 33 33 33 33 33 34 34 35 35 35 35 35 35 35 35 35 35 35 35 35 35 35 36 36 35 34 33 32 33 34 34
30 31 31 32 32 32 32 33 33 33 33 33 33 34 35 35 35 36 36 37 36 36 36 36 35 36 36 35 35 35 35 35 34 33 32 33 33 33
30 30 31 31 32 32 33 33 33 33 33 33 33 34 34 34 35 35 36 36 36 36 36 37 36 35 36 35 35 34 34 34 33 33 33 34 33 32
30 30 31 31 32 32 32 32 32 32 33 32 33 34 34 34 33 34 34 34 35 35 35 36 36 36 35 34 33 33 34 35 34 33 34 34 33 32
30 30 30 30 30 31 31 31 30 31 31 32 31 31 32 32 32 33 33 33 33 33 34 34 35 35 33 32 32 33 33 34 34 34 34 34 34 33
29 29 29 29 29 29 30 30 30 30 30 30 29 29 29 30 32 32 32 32 32 32 33 33 33 33 32 32 32 32 34 34 33 33 34 34 34 34
29 28 28 28 28 28 28 29 29 29 29 29 28 28 28 29 30 30 31 32 32 31 31 31 31 32 32 32 33 33 33 33 33 33 34 35 35 34
28 28 28 28 28 28 28 28 28 28 28 28 28 28 28 28 29 29 29 30 30 30 30 31 30 31 31 32 32 32 32 33 32 32 33 33 33 33
27 27 27 28 28 28 28 29 29 29 29 28 28 28 28 28 28 29 29 30 29 30 30 30 30 30 31 32 32 32 32 32 32 32 32 33 32 32
28 28 28 28 28 27 27 28 28 27 27 28 28 28 28 29 29 29 30 30 30 29 29 30 30 31 31 32 32 32 32 32 32 32 32 32 32 31
Wind_Direction
290 293 291 286 282 280 275 270 267 264 262 263 266 266 266 267 266 267 269 271 272 273 273 275 276 278 278 278 277 277 276 277 278 276 277 278 278 278
287 289 291 291 287 281 278 276 271 268 267 265 267 267 267 267 267 267 268 271 273 274 275 274 273 275 278 277 276 275 275 276 278 278 278 278 278 278
286 287 287 288 288 284 281 278 274 272 269 267 267 267 269 267 267 268 267 269 272 273 276 277 276 276 277 276 277 276 276 276 277 279 279 279 279 278
284 285 284 285 285 285 282 279 275 273 272 269 268 267 267 266 267 268 269 270 272 274 276 277 276 276 276 277 277 277 276 276 277 279 279 280 281 280
283 283 284 285 285 283 282 281 278 275 272 271 269 269 269 268 268 269 269 270 272 275 277 278 277 275 275 276 276 275 275 276 277 278 279 280 281 280
283 283 283 284 283 283 282 281 279 277 275 274 273 273 272 270 268 268 268 269 273 275 276 277 278 277 277 276 275 274 273 275 276 277 278 279 280 279
283 283 283 283 284 283 282 281 279 277 276 276 276 274 273 271 269 269 270 271 272 274 275 276 277 278 277 277 276 276 275 275 276 277 278 278 277 277
284 284 284 282 282 282 281 281 279 278 277 277 275 274 273 274 270 269 269 270 272 273 274 275 276 277 277 277 275 274 275 277 278 279 278 277 278 279
285 284 283 282 281 283 281 279 279 279 279 279 277 275 273 274 271 270 269 270 272 274 275 276 276 276 277 278 277 277 276 278 279 279 279 279 279 279
285 285 286 285 281 281 280 280 280 281 280 278 278 277 275 274 273 272 272 273 273 275 276 276 276 277 278 279 279 278 277 278 279 279 279 280 280 280
286 286 285 284 282 281 281 281 280 280 279 278 279 278 276 274 273 273 273 274 275 276 277 278 277 277 277 278 279 278 279 279 279 280 280 280 280 280
285 285 284 283 282 281 281 281 280 280 278 277 277 277 276 275 274 273 274 275 275 276 277 278 278 278 278 278 278 277 279 281 280 281 281 279 279 279
285 285 284 283 282 282 280 280 279 278 278 277 276 277 277 276 276 275 275 275 275 276 277 278 279 279 279 277 277 277 278 281 281 281 281 279 279 279
285 285 284 283 282 282 281 280 278 278 278 277 277 275 276 276 276 275 275 275 275 276 278 278 280 280 280 279 279 278 278 278 280 281 280 281 281 280
287 287 286 284 283 283 282 282 281 280 279 279 277 275 275 276 276 276 276 276 277 277 276 277 278 279 279 280 279 278 278 279 280 280 280 280 280 280
286 287 286 284 284 284 283 283 283 282 282 280 277 276 276 277 277 276 275 275 276 276 276 276 277 276 277 280 280 278 277 278 278 279 281 281 280 279
284 285 285 283 283 285 285 285 285 284 284 282 280 278 276 276 275 275 275 275 275 276 276 277 278 279 279 280 280 279 277 276 276 277 279 280 279 279
283 284 285 285 285 285 284 286 287 287 287 286 283 280 276 274 274 275 274 275 275 276 277 279 279 280 281 280 280 279 277 278 277 277 278 279 278 278
285 285 287 286 287 287 287 286 288 288 287 286 282 279 276 275 275 275 275 275 275 277 278 279 279 280 278 279 280 280 280 279 280 280 280 280 279 279
285 285 286 287 286 287 287 288 288 288 286 285 284 280 278 278 277 277 276 276 278 279 280 280 280 280 279 279 279 281 281 282 282 282 281 280 280 280
286 284 285 285 285 284 285 287 287 288 287 285 285 283 282 281 279 279 279 279 280 281 281 280 280 279 280 280 281 282 283 284 284 283 282 281 280 279
286 285 284 285 285 285 284 286 287 287 288 287 286 285 284 283 282 281 281 282 281 281 282 281 281 281 280 279 281 283 285 285 284 283 282 282 282 282
285 283 283 284 285 287 287 288 288 288 287 286 286 285 285 285 284 284 283 283 282 282 282 282 282 281 280 279 281 283 284 283 282 282 282 282 283 284
Height
5869 5868 5866 5865 5864 5863 5862 5861 5862 5862 5861 5861 5860 5860 5859 5858 5858 5857 5856 5855 5854 5853 5852 5851 5851 5850 5849 5848 5846 5846 5845 5844 5843 5842 5841 5840 5840 5839
5864 5863 5861 5860 5858 5857 5856 5855 5855 5855 5855 5855 5854 5853 5852 5852 5851 5850 5850 5849 5848 5847 5846 5845 5844 5843 5842 5841 5840 5839 5838 5838 5837 5836 5835 5834 5833 5832
5858 5857 5856 5855 5853 5852 5851 5849 5849 5848 5848 5848 5847 5846 5845 5844 5844 5843 5842 5841 5840 5839 5838 5838 5836 5836 5835 5834 5833 5832 5831 5830 5830 5829 5828 5827 5825 5824
5853 5851 5850 5848 5847 5845 5844 5843 5842 5841 5841 5841 5840 5838 5837 5837 5836 5835 5834 5834 5833 5832 5831 5830 5829 5828 5827 5826 5825 5824 5823 5822 5822 5821 5820 5819 5818 5816
5846 5844 5843 5841 5840 5839 5837 5836 5834 5833 5832 5832 5832 5831 5830 5829 5828 5827 5827 5826 5825 5824 5823 5822 5821 5820 5819 5818 5817 5816 5815 5814 5813 5812 5811 5810 5809 5808
5839 5837 5836 5834 5833 5831 5830 5828 5827 5825 5824 5824 5823 5823 5822 5821 5820 5819 5819 5818 5817 5816 5815 5814 5813 5811 5810 5809 5808 5807 5806 5805 5804 5803 5802 5801 5800 5798
5831 5829 5828 5826 5825 5823 5822 5820 5818 5817 5816 5815 5814 5814 5813 5812 5811 5810 5810 5809 5809 5807 5806 5806 5804 5803 5801 5800 5799 5798 5797 5796 5795 5793 5792 5791 5790 5789
5823 5821 5820 5818 5816 5815 5813 5811 5810 5808 5807 5806 5805 5804 5804 5803 5801 5801 5801 5800 5800 5800 5798 5797 5795 5794 5793 5792 5790 5789 5788 5787 5785 5784 5782 5781 5780 5779
5814 5813 5811 5809 5807 5805 5804 5802 5801 5799 5798 5797 5795 5795 5794 5793 5792 5792 5791 5791 5790 5789 5788 5787 5786 5785 5784 5782 5781 5780 5778 5777 5776 5774 5773 5772 5771 5769
5805 5803 5801 5800 5798 5795 5794 5792 5791 5790 5788 5787 5786 5785 5784 5783 5783 5782 5782 5781 5780 5779 5778 5778 5776 5776 5774 5773 5771 5770 5769 5767 5766 5765 5763 5762 5760 5759
5796 5794 5792 5790 5788 5786 5785 5784 5782 5780 5778 5777 5776 5775 5774 5774 5773 5772 5771 5771 5770 5769 5768 5768 5767 5766 5764 5763 5761 5760 5759 5757 5756 5754 5753 5751 5750 5749
5787 5785 5783 5781 5779 5777 5775 5774 5772 5771 5769 5768 5766 5765 5764 5763 5763 5762 5761 5760 5760 5760 5758 5758 5757 5755 5754 5753 5751 5750 5748 5747 5745 5744 5742 5741 5739 5738
5777 5775 5773 5771 5769 5768 5766 5764 5762 5761 5759 5758 5756 5755 5754 5753 5753 5752 5751 5750 5749 5749 5748 5747 5746 5745 5744 5743 5741 5740 5738 5737 5735 5733 5731 5730 5729 5727
5768 5766 5764 5762 5760 5758 5756 5754 5752 5750 5749 5747 5746 5745 5744 5743 5742 5741 5740 5739 5738 5738 5737 5736 5735 5734 5733 5732 5731 5729 5728 5726 5725 5723 5721 5720 5718 5717
5758 5756 5754 5752 5750 5748 5746 5744 5742 5740 5738 5737 5736 5735 5733 5732 5731 5730 5729 5728 5727 5726 5726 5725 5724 5723 5722 5721 5720 5718 5717 5716 5714 5713 5711 5710 5708 5707
5748 5746 5744 5742 5740 5738 5736 5734 5732 5730 5728 5727 5725 5724 5722 5721 5720 5719 5718 5717 5716 5716 5715 5714 5713 5712 5711 5710 5709 5708 5706 5705 5704 5702 5701 5699 5698 5697
5738 5737 5735 5733 5731 5729 5727 5724 5722 5720 5718 5716 5714 5713 5712 5710 5709 5708 5707 5706 5705 5705 5704 5703 5702 5701 5700 5699 5698 5697 5696 5694 5693 5692 5691 5689 5688 5686
5729 5727 5725 5723 5722 5720 5717 5715 5713 5711 5708 5706 5704 5702 5701 5700 5699 5698 5697 5696 5695 5695 5694 5693 5692 5691 5690 5689 5688 5686 5685 5683 5682 5681 5680 5679 5678 5676
5720 5718 5716 5714 5713 5710 5708 5706 5704 5701 5699 5696 5694 5692 5691 5690 5689 5688 5687 5686 5685 5685 5684 5683 5682 5681 5681 5680 5678 5676 5675 5673 5672 5671 5669 5668 5667 5666
5711 5709 5707 5705 5703 5702 5699 5697 5695 5692 5690 5688 5685 5684 5682 5681 5680 5679 5678 5677 5676 5675 5674 5673 5672 5671 5671 5670 5669 5667 5665 5663 5662 5661 5659 5657 5656 5655
5702 5700 5698 5696 5694 5693 5691 5689 5686 5684 5682 5679 5677 5676 5674 5672 5671 5670 5669 5668 5666 5665 5665 5664 5662 5661 5661 5660 5659 5657 5655 5653 5651 5650 5649 5647 5646 5645
5693 5691 5689 5687 5685 5684 5682 5680 5678 5676 5674 5671 5669 5667 5665 5664 5662 5661 5660 5658 5657 5656 5655 5654 5653 5651 5650 5650 5648 5647 5645 5643 5641 5639 5638 5637 5635 5634
5684 5682 5680 5678 5677 5675 5673 5671 5669 5667 5665 5663 5661 5659 5657 5655 5653 5652 5651 5649 5648 5647 5645 5644 5643 5641 5640 5639 5638 5637 5635 5633 5632 5630 5629 5627 5625 5623